Wind_Speed
48 48 48 50 50 48 47 46 45 44 41 39 40 40 37 35 35 37 35 35 36 37 38 41 48 54 62 71 77 81 84 86 85 82 81 79 75 76 74 71 72 73 72
51 50 50 51 52 52 50 48 45 44 43 41 39 41 42 41 38 37 36 34 36 37 37 37 40 42 45 51 60 71 79 83 84 81 79 80 78 78 76 73 72 71 71
55 54 54 54 54 52 49 47 45 43 41 40 38 38 41 44 44 41 38 37 38 38 39 38 38 39 39 41 47 55 65 75 82 83 80 79 79 79 78 78 77 74 73
57 56 56 53 51 50 48 46 44 42 38 34 34 34 36 42 47 45 44 42 41 40 40 42 42 41 42 42 43 47 53 61 69 77 77 77 83 82 76 74 76 77 76
57 57 53 50 51 51 48 45 41 38 35 30 28 29 31 36 45 46 46 45 44 44 44 43 44 43 42 43 46 48 50 56 59 65 69 66 75 78 76 69 68 69 73
58 55 51 53 53 53 50 46 42 38 34 29 26 25 27 32 38 45 47 46 45 45 45 44 44 42 41 45 49 48 47 53 51 54 69 69 67 69 71 70 69 69 71
58 53 54 56 56 55 52 49 47 43 37 32 27 23 24 30 33 39 44 44 42 42 42 42 41 40 39 35 35 36 38 49 48 49 53 61 63 65 65 66 70 76 75
56 53 57 57 56 56 53 51 51 50 42 33 28 23 22 28 31 33 38 38 40 40 40 40 37 35 36 35 39 40 39 47 51 56 55 56 57 56 63 64 58 64 72
55 55 58 57 55 55 54 54 56 54 44 34 26 22 21 25 29 31 35 38 40 42 42 40 38 38 36 41 46 40 39 48 53 56 55 58 58 60 55 52 55 63 66
54 57 59 58 57 58 58 60 61 55 41 30 23 20 19 21 26 30 35 38 42 43 44 44 45 46 40 40 41 37 38 44 51 54 50 52 49 47 54 62 59 57 60
56 58 60 59 60 61 62 66 64 50 34 26 21 17 16 19 23 29 33 37 41 44 45 46 49 50 47 42 39 40 40 41 43 43 46 50 51 49 48 51 54 55 54
57 57 59 60 62 63 65 68 63 43 29 22 18 15 13 16 21 26 27 32 37 43 46 46 48 51 51 47 43 42 42 43 43 44 47 49 49 50 53 54 52 53 56
56 56 58 61 63 66 68 70 62 43 30 21 17 14 13 13 18 22 24 29 37 41 46 46 47 48 50 51 48 46 44 43 43 43 43 45 46 47 50 53 54 54 56
56 56 58 61 62 66 70 72 65 46 33 23 16 14 12 12 14 16 20 25 30 38 43 46 47 47 47 49 51 51 48 46 46 46 45 44 44 43 44 47 48 51 51
56 56 58 60 62 65 69 72 69 53 39 28 18 13 12 12 12 14 16 19 24 30 40 44 46 48 47 47 48 50 52 50 49 50 50 50 50 48 46 46 48 49 49
56 56 59 60 60 62 66 70 70 62 45 33 23 15 10 11 11 13 14 14 18 22 30 40 44 47 49 49 48 48 49 53 55 54 54 54 53 53 52 51 50 50 49
56 57 60 61 60 61 65 68 70 68 57 41 29 20 13 8 9 10 11 12 13 16 21 29 39 45 48 51 51 50 48 48 52 58 61 59 57 55 54 54 55 54 53
56 57 59 61 62 62 64 67 70 70 66 54 39 28 20 13 8 8 9 10 11 12 15 20 28 38 46 49 51 52 51 49 47 48 55 61 59 57 55 53 54 57 55
55 56 58 61 62 61 62 64 66 68 69 64 54 40 30 23 17 11 8 8 9 10 12 15 20 27 37 46 49 51 52 52 49 47 48 54 58 58 55 53 52 55 55
53 55 57 59 60 60 61 62 63 65 66 67 64 57 47 36 27 21 16 12 9 8 9 11 14 18 25 35 46 50 52 53 53 52 49 49 50 52 51 50 49 50 49
53 53 55 57 58 59 60 60 61 62 63 64 64 62 60 53 46 38 29 22 17 13 9 7 8 12 16 23 34 45 51 53 54 55 53 51 50 49 49 49 48 47 46
52 52 53 54 56 56 58 59 60 60 60 60 60 61 60 58 55 52 46 40 34 25 17 10 5 4 8 12 19 31 43 50 53 55 55 55 53 52 51 51 51 49 47
50 51 51 52 54 54 55 56 58 59 59 58 58 57 57 56 56 54 52 50 46 42 38 30 19 10 4 3 7 15 26 39 49 54 56 57 58 57 56 54 54 53 51
47 48 50 51 51 52 54 54 55 56 57 58 57 56 55 54 53 52 52 51 50 48 45 41 38 31 22 13 6 3 11 21 34 47 55 58 59 60 61 60 58 56 55
45 46 47 48 49 50 51 52 52 53 54 55 56 57 56 55 53 51 50 49 48 48 47 45 42 38 34 29 23 15 6 6 15 27 41 52 58 61 63 64 64 62 61
42 44 45 46 48 49 50 50 49 50 51 52 53 54 55 56 55 54 52 50 47 45 44 44 44 42 39 35 31 26 22 14 5 8 20 32 45 55 61 64 66 66 66
Wind_Direction
335 332 330 327 324 320 316 313 308 303 296 284 271 262 256 251 247 245 246 241 234 229 226 229 233 236 239 239 240 241 242 242 242 238 236 235 235 236 236 236 237 238 237
337 333 330 327 324 321 317 314 311 303 296 289 278 264 255 250 245 241 239 237 233 231 229 228 228 230 234 238 239 239 239 239 239 239 237 237 236 236 236 236 235 237 237
338 335 332 329 326 323 319 314 312 309 299 288 280 270 258 249 243 239 237 235 232 232 231 231 231 230 231 235 236 237 237 236 235 235 234 235 234 235 236 236 237 236 235
338 337 335 335 334 332 328 321 315 313 308 293 281 273 263 253 243 237 236 235 233 232 232 232 232 233 236 238 239 239 240 237 234 232 230 231 233 232 231 232 234 235 235
341 340 341 343 343 341 338 333 326 320 314 303 289 276 266 257 246 238 235 233 232 232 234 236 235 236 240 243 246 246 245 234 229 226 219 219 226 228 227 224 225 228 231
344 344 345 345 346 345 343 341 336 328 321 313 300 286 268 259 250 240 235 233 231 230 231 234 235 237 240 247 250 249 240 224 216 217 214 216 221 224 225 224 220 219 222
346 347 347 346 346 345 344 342 342 336 325 315 305 291 273 259 251 243 236 233 231 228 227 229 233 238 245 247 235 223 220 208 205 204 209 216 219 219 218 216 219 222 223
347 348 348 347 347 346 345 343 341 339 331 318 304 291 273 261 253 242 235 228 226 222 220 223 227 230 227 216 206 204 203 207 208 204 199 200 208 214 216 216 213 221 227
349 349 350 350 349 348 346 343 339 336 329 319 307 291 271 260 255 244 229 220 218 218 214 214 217 211 211 212 209 211 208 202 209 204 201 200 209 205 208 206 215 224 227
350 350 351 350 350 350 348 344 341 336 326 315 306 290 270 256 254 247 230 216 214 215 212 209 211 210 212 210 215 220 217 209 206 213 219 215 208 208 205 203 208 217 222
352 351 351 352 352 351 349 347 344 339 328 314 304 291 271 253 249 247 235 217 215 214 213 211 211 211 214 214 215 216 214 210 208 205 209 213 214 213 208 209 210 210 211
354 353 354 356 356 354 353 353 351 347 337 320 306 294 276 255 248 249 243 228 218 217 214 213 214 213 214 214 211 209 212 210 206 203 202 204 205 209 210 211 213 213 213
357 357 358 359 359 359 359 359 360 357 349 332 310 296 283 263 252 250 245 236 225 219 214 211 214 215 215 216 213 209 208 211 213 209 206 207 207 207 209 210 211 212 216
1 1 0 0 1 2 4 4 5 3 359 347 321 297 284 272 261 257 251 243 235 226 219 215 214 215 216 217 218 216 213 212 212 213 214 215 214 213 214 213 215 216 219
4 4 4 3 4 6 7 8 9 8 2 357 344 313 287 276 269 262 258 251 244 233 226 220 217 218 217 217 216 217 218 217 215 213 214 216 217 217 220 220 222 223 224
7 8 8 8 9 11 12 13 13 14 10 6 360 346 313 285 276 269 266 259 252 243 233 228 222 219 220 219 218 217 216 217 217 215 214 214 217 219 220 222 226 229 231
9 11 13 12 13 15 17 17 18 19 19 17 14 7 355 324 295 284 279 272 261 253 241 233 229 223 221 221 221 220 219 218 217 218 217 216 217 220 222 224 225 228 230
11 14 15 15 18 20 20 20 22 24 25 26 25 23 20 12 346 308 293 285 273 262 253 241 234 230 225 223 222 223 222 221 221 222 223 222 220 221 223 227 230 230 229
12 16 18 18 20 22 22 23 25 27 29 31 32 32 31 30 26 13 346 317 298 281 265 252 240 233 229 226 223 222 224 224 223 223 223 223 223 225 226 228 231 230 228
13 16 19 21 21 22 24 26 27 29 31 33 36 37 38 38 35 31 26 15 350 314 284 263 249 240 233 228 226 223 222 224 224 223 223 223 223 224 225 227 227 224 223
15 17 20 22 22 23 25 27 29 30 32 34 35 38 40 41 42 41 37 29 19 8 349 312 267 246 239 232 226 225 224 223 224 225 225 225 225 224 224 224 224 222 221
16 18 21 23 23 23 25 27 29 31 32 34 35 36 38 40 41 43 43 42 40 35 26 13 354 286 249 239 230 225 225 225 225 225 226 227 227 227 226 225 225 225 225
18 19 21 23 25 25 26 27 30 32 33 34 35 36 37 38 40 41 42 43 43 43 43 42 39 36 20 295 246 233 228 226 226 226 227 228 228 228 228 228 228 228 228
19 19 21 23 24 25 27 28 30 32 34 34 35 36 36 37 38 39 41 42 43 43 44 45 46 47 46 40 22 280 241 232 229 229 228 228 228 229 230 230 230 230 231
20 20 21 23 24 25 27 27 29 32 34 35 36 37 37 37 38 38 39 40 40 41 42 43 44 45 46 45 43 38 18 258 238 232 231 230 229 229 229 230 230 231 231
19 21 23 24 24 25 27 27 27 30 33 35 36 37 38 38 38 38 38 38 38 38 38 39 40 41 41 41 41 40 40 38 16 249 236 232 231 230 230 230 230 230 231
Height
5503 5492 5482 5471 5461 5451 5442 5433 5426 5419 5414 5412 5411 5412 5415 5416 5417 5419 5422 5426 5430 5435 5441 5447 5454 5461 5470 5477 5486 5496 5506 5518 5534 5547 5557 5569 5579 5587 5597 5605 5614 5622 5632
5495 5484 5473 5462 5451 5440 5430 5421 5413 5406 5400 5396 5395 5396 5399 5402 5404 5407 5411 5415 5420 5425 5430 5436 5441 5448 5455 5461 5468 5476 5486 5499 5512 5525 5537 5550 5561 5571 5580 5588 5597 5606 5616
5487 5475 5463 5451 5439 5428 5417 5408 5400 5393 5386 5381 5379 5379 5382 5384 5389 5394 5399 5404 5409 5413 5419 5424 5430 5436 5443 5448 5455 5462 5469 5478 5490 5505 5517 5530 5542 5553 5563 5571 5580 5589 5599
5478 5466 5453 5440 5428 5417 5405 5395 5386 5379 5372 5368 5366 5365 5365 5366 5371 5379 5386 5391 5396 5402 5408 5413 5419 5425 5430 5436 5443 5449 5454 5462 5472 5486 5498 5509 5521 5534 5545 5554 5563 5573 5584
5470 5457 5444 5432 5420 5407 5396 5385 5375 5367 5361 5356 5354 5353 5352 5351 5354 5362 5369 5377 5384 5390 5396 5401 5406 5412 5417 5423 5427 5432 5439 5446 5455 5468 5480 5491 5500 5514 5527 5538 5548 5557 5567
5463 5449 5437 5425 5412 5400 5388 5377 5367 5359 5352 5346 5343 5341 5339 5338 5340 5346 5354 5362 5370 5376 5381 5387 5392 5399 5405 5408 5412 5417 5421 5431 5445 5453 5464 5475 5484 5496 5511 5523 5534 5543 5553
5456 5443 5431 5418 5406 5394 5382 5371 5360 5351 5343 5336 5332 5330 5328 5326 5328 5333 5341 5349 5357 5362 5367 5374 5380 5386 5391 5394 5398 5404 5410 5420 5432 5442 5452 5458 5470 5483 5499 5511 5518 5526 5537
5449 5437 5425 5412 5399 5387 5375 5363 5353 5342 5333 5326 5321 5319 5317 5315 5317 5323 5329 5338 5343 5348 5356 5363 5369 5374 5379 5385 5391 5396 5402 5411 5420 5431 5443 5448 5461 5471 5484 5496 5503 5508 5522
5444 5433 5420 5407 5394 5380 5368 5355 5343 5331 5321 5313 5309 5307 5306 5305 5305 5309 5314 5323 5329 5335 5344 5353 5359 5365 5370 5375 5381 5388 5395 5403 5412 5420 5431 5441 5451 5463 5473 5481 5487 5494 5504
5440 5428 5414 5401 5387 5374 5359 5346 5331 5316 5305 5300 5297 5296 5295 5295 5294 5295 5300 5309 5316 5324 5333 5341 5347 5354 5361 5368 5375 5382 5388 5395 5403 5412 5420 5430 5440 5449 5458 5466 5474 5483 5492
5437 5423 5410 5396 5382 5368 5352 5335 5317 5301 5291 5287 5285 5285 5285 5285 5284 5284 5288 5300 5307 5315 5322 5329 5337 5344 5352 5359 5367 5374 5380 5387 5395 5403 5411 5420 5430 5439 5448 5456 5464 5473 5481
5434 5421 5407 5393 5379 5363 5346 5326 5306 5289 5282 5278 5276 5276 5277 5277 5277 5276 5281 5288 5295 5302 5310 5319 5327 5334 5342 5351 5358 5366 5373 5381 5388 5395 5404 5413 5421 5429 5438 5446 5454 5462 5470
5433 5419 5405 5390 5375 5359 5341 5321 5301 5286 5277 5272 5269 5269 5270 5271 5270 5270 5273 5276 5281 5288 5298 5309 5316 5323 5331 5340 5348 5356 5365 5372 5381 5388 5396 5405 5413 5420 5428 5437 5445 5452 5459
5433 5419 5404 5389 5374 5356 5338 5319 5299 5285 5276 5269 5265 5264 5264 5265 5266 5266 5267 5269 5273 5280 5288 5298 5305 5313 5321 5329 5338 5347 5355 5363 5371 5380 5387 5396 5404 5411 5419 5427 5435 5442 5450
5433 5420 5405 5390 5374 5357 5338 5320 5301 5284 5273 5267 5263 5260 5259 5260 5261 5262 5262 5264 5267 5272 5278 5286 5296 5304 5312 5320 5328 5336 5345 5353 5361 5370 5378 5386 5394 5401 5410 5418 5425 5433 5440
5436 5422 5408 5393 5379 5363 5345 5325 5305 5288 5274 5265 5260 5257 5256 5257 5257 5258 5259 5261 5262 5265 5270 5276 5283 5291 5300 5308 5317 5325 5334 5342 5351 5359 5367 5375 5383 5391 5399 5406 5414 5422 5428
5439 5426 5412 5398 5383 5366 5350 5333 5315 5296 5279 5268 5261 5257 5255 5255 5255 5256 5257 5258 5259 5261 5264 5268 5273 5280 5288 5297 5305 5314 5323 5331 5339 5347 5356 5364 5372 5380 5388 5395 5402 5410 5417
5443 5429 5416 5401 5385 5369 5355 5339 5323 5307 5290 5276 5266 5261 5257 5256 5255 5255 5256 5256 5257 5258 5259 5262 5266 5271 5278 5286 5295 5303 5311 5320 5328 5335 5343 5351 5360 5368 5376 5383 5390 5397 5404
5448 5434 5419 5405 5390 5376 5363 5349 5334 5319 5304 5289 5277 5268 5263 5260 5258 5256 5255 5255 5254 5254 5255 5257 5259 5263 5268 5275 5283 5291 5300 5308 5317 5325 5332 5339 5347 5355 5362 5370 5376 5383 5391
5452 5438 5424 5411 5399 5386 5373 5360 5346 5332 5318 5305 5292 5281 5272 5267 5263 5260 5258 5255 5254 5252 5252 5253 5254 5256 5259 5265 5272 5280 5288 5297 5306 5314 5322 5329 5336 5343 5350 5357 5364 5371 5379
5456 5444 5431 5418 5407 5395 5382 5369 5356 5344 5331 5319 5308 5296 5287 5279 5272 5266 5262 5259 5256 5253 5251 5250 5250 5252 5253 5256 5262 5269 5277 5285 5293 5302 5309 5317 5324 5331 5338 5346 5354 5362 5369
5460 5449 5437 5425 5415 5404 5391 5379 5366 5354 5343 5332 5322 5312 5302 5293 5285 5277 5271 5265 5260 5256 5252 5250 5249 5250 5251 5253 5255 5259 5266 5273 5281 5289 5297 5304 5312 5320 5327 5335 5343 5351 5358
5465 5455 5444 5433 5422 5412 5401 5389 5377 5366 5355 5344 5334 5325 5316 5307 5299 5290 5282 5275 5269 5264 5259 5254 5251 5251 5251 5251 5252 5254 5257 5262 5269 5276 5284 5292 5300 5308 5316 5324 5332 5340 5348
5471 5461 5451 5440 5430 5420 5410 5400 5388 5377 5367 5356 5347 5337 5328 5320 5312 5304 5296 5289 5282 5276 5270 5265 5260 5256 5254 5252 5252 5252 5253 5255 5258 5264 5270 5277 5286 5294 5302 5311 5318 5326 5333
5476 5467 5458 5448 5439 5429 5419 5409 5399 5389 5379 5369 5359 5350 5341 5333 5324 5316 5309 5301 5295 5288 5282 5276 5270 5265 5261 5258 5255 5252 5251 5251 5252 5255 5258 5264 5271 5278 5286 5294 5303 5311 5319
5482 5473 5464 5455 5446 5437 5427 5418 5409 5399 5390 5380 5371 5362 5354 5346 5338 5329 5321 5313 5306 5299 5292 5286 5280 5275 5269 5265 5261 5257 5254 5251 5250 5249 5250 5253 5257 5263 5270 5277 5286 5294 5303